Location: The Saddle
(36.8333°N, 80.3417°W)
Time: 18:11:02
(UTC-05:00)

Vanguard 2 Rocket - Pass Details

Date: 27 September 2023
Orbit: 553 x 3312 km, 32.9° (Epoch: 04 December)

Event Time Altitude Azimuth Distance (km) Brightness Sun altitude
Rises 19:37:01 0° 283° (WNW) 7,062 13.6 -6.0°
Reaches altitude 10° 19:43:31 10° 272° (W) 5,709 12.8 -7.3°
Maximum altitude 19:54:48 23° 228° (SW) 3,852 10.6 -9.6°
Drops below altitude 10° 20:02:57 10° 181° (S) 3,984 10.1 -11.2°
Sets 20:06:30 0° 167° (SSE) 4,560 10.3 -11.9°
